Regional Weather Roundup
Issued by NWS Sterling, VA

Home | Current Version | Previous Version | Graphics & Text | Print | Product List | Glossary On
Versions: 1 2 3 4 5 6 7 8 9 10 11 12 13 14 15 16 17 18 19 20 21 22 23 24 25 26 27 28 29 30 31 32 33 34 35 36 37 38 39 40 41 42 43 44 45 46 47 48 49 50
000
ASUS41 KLWX 251110
RWRLWX

REGIONAL WEATHER ROUNDUP
NATIONAL WEATHER SERVICE BALTIMORE MD/WASHINGTON DC
600 AM EST SUN JAN 25 2015

Note: "FAIR" indicates few or no clouds below 12,000 feet
with no significant weather and/or obstructions to visibility.
 TC=TEMPERATURE CELSIUS

 * =Non NWS site. Station does not report precipitation (e.g. rain,
    snow, etc.), thunder, or fog.

DCZ001-MDZ009-015-VAZ040>042-051-053>054-251200-
WASHINGTON METRO

CITY           SKY/WX    TMP DP  RH WIND       PRES   REMARKS
WASHINGTON NAT MOCLDY    38  27  64 SW6       29.81R
DULLES         MOCLDY    36  27  69 SW6       29.80R
ANDREWS AFB    PTCLDY    34  27  75 SW6       29.80R
FT BELVOIR     MOCLDY    37  26  65 VRB2      29.82R
QUANTICO       MOCLDY    37  26  64 W8        29.83R
COLLEGE PARK*  CLOUDY    39  28  65 SW5       29.79R
LEESBURG*      MOCLDY    37  30  75 CALM      29.80R
MANASSAS*      CLOUDY    37  28  70 S3        29.81R
GAITHERSBURG*  CLOUDY    37  27  65 W8        29.81R

$$

MDZ006>007-011-014-251200-
BALTIMORE METRO

CITY           SKY/WX    TMP DP  RH WIND       PRES   REMARKS
BWI AIRPORT    CLOUDY    36  27  69 SW7       29.77R
MD SCIENCE CTR   N/A     37  27  67 MISG      29.78R
MARTIN STATE   CLOUDY    37  30  75 S6        29.79R
ANNAPOLIS      CLOUDY    37  27  67 VRB3      29.79R
FORT MEADE*    CLOUDY    32  30  93 W6        29.81R

$$

MDZ012-015-019>023-251200-
MARYLAND EASTERN SHORE

CITY           SKY/WX    TMP DP  RH WIND       PRES   REMARKS
OCEAN CITY     FAIR      34  29  82 W9        29.80R WCI  27
SALISBURY      CLEAR     37  28  70 W8        29.80R
BAY BRIDGE AP*   N/A     37  28  70 SW7       29.80R
CAMBRIDGE*     MOCLDY    37  30  75 SW6       29.80R
EASTON*        CLOUDY    38  32  76 W7        29.82R

$$

MDZ017>025-251200-
SOUTHERN MARYLAND

CITY           SKY/WX    TMP DP  RH WIND       PRES   REMARKS
PATUXENT RIVER PTCLDY    34  27  75 SW7       29.81R
ST INIGOES     PTCLDY    35  28  75 SW6       29.82R
LEONARDTOWN*   PTCLDY    34  28  80 SW3       29.82S

$$

MDZ003>005-251200-
NORTH CENTRAL MARYLAND

CITY           SKY/WX    TMP DP  RH WIND       PRES   REMARKS
FREDERICK*     NOT AVBL
HAGERSTOWN APT CLOUDY    38  27  64 SW10      29.73R
WESTMINSTER*   CLOUDY    36  30  80 SW3       29.73R

$$

MDZ501>502-251200-
WESTERN MARYLAND

CITY           SKY/WX    TMP DP  RH WIND       PRES   REMARKS
OAKLAND*       CLOUDY    28 N/A N/A W8        29.66R FOG     WCI  20
CUMBERLAND*    CLOUDY    39  30  70 CALM      29.79R

$$

VAZ025>031-251200-
SHENANDOAH VALLEY

CITY           SKY/WX    TMP DP  RH WIND       PRES   REMARKS
WINCHESTER*    CLOUDY    39  27  60 SW7       29.77R
FRONT ROYAL*   CLOUDY    37  28  70 S6        29.77R
LURAY*         CLOUDY    37  30  75 S8        29.79R
NEW MARKET*    CLOUDY    36  27  71 CALM      29.78R
STAUNTON*      CLOUDY    37  26  65 S7        29.81R
WAYNESBORO*    CLOUDY    34  26  71 S3        29.79S

$$

WVZ021-048>050-054>055-251200-
EASTERN WEST VIRGINIA PANHANDLE

CITY           SKY/WX    TMP DP  RH WIND       PRES   REMARKS
MARTINSBURG    CLOUDY    39  28  64 S8        29.76R
PETERSBURG*    CLOUDY    41  26  57 SW14G21   29.77S

$$

VAZ036>039-050-251200-
CENTRAL FOOTHILLS

CITY           SKY/WX    TMP DP  RH WIND       PRES   REMARKS
CHARLOTTESVILL CLOUDY    34  25  69 S5        29.81R
CULPEPER*      CLOUDY    36  28  75 SW5       29.82R
ORANGE*        CLOUDY    34  30  86 S5        29.83S
GORDONSVILLE*  CLOUDY    29  26  88 CALM      29.83R
WARRENTON*     CLOUDY    37  32  82 SW5       29.81R

$$

VAZ055>057-251200-
NORTH AND CENTRAL PIEDMONT

CITY           SKY/WX    TMP DP  RH WIND       PRES   REMARKS
FREDERICKSBRG* CLOUDY    35  29  79 SW9       29.83R WCI  28
STAFFORD*      CLOUDY    35  26  70 CALM      29.86R

$$

NCZ024-NYZ072-PAZ021-071-VAZ022-071-251200-
OTHER REGIONAL OBSERVATIONS

CITY           SKY/WX    TMP DP  RH WIND       PRES   REMARKS
NEW YORK CITY  PTCLDY    35  24  64 W6        29.65R
PHILADELPHIA   MOCLDY    35  27  72 SW14      29.72R WCI  26
PITTSBURGH     LGT SNOW  33  31  92 W6        29.73S FOG
ROANOKE        CLOUDY    36  27  69 CALM      29.86R
RICHMOND       CLOUDY    35  28  75 W8        29.85R WCI  29
RALEIGH        PTCLDY    30  24  78 W3        29.90R

$$

ANZ530>537-251200-
MARINE OBSERVATIONS

STATION/POSITION TIME  TEMP    WIND        PRES
                       AIR SEA DIR/SP/G
                 (UTC) (F)     (DEG/KT/KT) (MB)
THOMAS PT LIGHT  1100   37 37  220/  8/  8 1010.2R
BALT KEY BRIDGE  1100   37     210/  9/ 11 1008.0R
COVE POINT       1100   36     250/  8/ 11 1009.2R
LEWISETTA        1100   35 38  250/  8/ 10 1009.8R
SOLOMONS ISLAND  1100      38                N/A
PINEY POINT      1100          270/  8/ 10   N/A

$$




USA.gov is the U.S. government's official web portal to all federal, state and local government web resources and services.